Вернуться в каталог

START 1 DEB

АктивенLEO
NORAD 27752·DEBRIS·🇷🇺 Russia

Запущен Mar 25, 1993 с Plesetsk Cosmodrome

Loading…

Ближайшие Пролёты (ближайшие 24 часа)

TLE

СвежийSource: Space-Track

Эпоха: Sep 14, 2026, 09:14 UTC

1 27752U 93014G   26257.38529877  .00000243  00000-0  85907-4 0  9993
2 27752  75.7599 136.8172 0178751 196.8569 162.6605 14.29011795271632

Отслеживайте START 1 DEB в реальном времени с AllMySat

Download on the App Store